TimeEST,TemperatureF,Dew PointF,Humidity,Sea Level PressureIn,VisibilityMPH,Wind Direction,Wind SpeedMPH,Gust SpeedMPH,PrecipitationIn,Events,Conditions,WindDirDegrees,DateUTC
12:15 AM,26.1,16.2,66,30.26,10.0,SSE,4.6,-,N/A,,Overcast,160,2013-02-07 05:15:00
12:36 AM,26.2,16.0,65,30.26,10.0,Calm,Calm,-,N/A,,Overcast,0,2013-02-07 05:36:00
12:55 AM,26.4,16.0,65,30.27,10.0,SE,3.5,-,N/A,,Overcast,140,2013-02-07 05:55:00
1:15 AM,26.4,16.3,66,30.26,10.0,Calm,Calm,-,N/A,,Overcast,0,2013-02-07 06:15:00
1:35 AM,26.1,17.6,70,30.25,10.0,ESE,4.6,-,N/A,,Overcast,120,2013-02-07 06:35:00
1:55 AM,26.4,17.4,69,30.26,10.0,Calm,Calm,-,N/A,,Overcast,0,2013-02-07 06:55:00
2:15 AM,26.2,17.1,68,30.25,10.0,ESE,4.6,-,N/A,,Mostly Cloudy,110,2013-02-07 07:15:00
2:35 AM,26.2,16.7,67,30.25,10.0,ESE,3.5,-,N/A,,Mostly Cloudy,110,2013-02-07 07:35:00
2:55 AM,26.2,16.9,68,30.25,10.0,ESE,3.5,-,N/A,,Overcast,120,2013-02-07 07:55:00
3:15 AM,26.6,17.1,67,30.26,10.0,Calm,Calm,-,N/A,,Overcast,0,2013-02-07 08:15:00
3:35 AM,26.6,17.4,68,30.24,10.0,Calm,Calm,-,N/A,,Overcast,0,2013-02-07 08:35:00
3:56 AM,26.4,17.2,68,30.23,10.0,East,4.6,-,N/A,,Overcast,100,2013-02-07 08:56:00
4:15 AM,26.6,17.1,67,30.23,10.0,Calm,Calm,-,N/A,,Overcast,0,2013-02-07 09:15:00
4:35 AM,27.0,17.6,68,30.22,10.0,ESE,5.8,-,N/A,,Overcast,120,2013-02-07 09:35:00
4:55 AM,27.5,17.4,66,30.21,10.0,SE,6.9,-,N/A,,Overcast,130,2013-02-07 09:55:00
5:15 AM,27.9,17.4,65,30.21,10.0,SE,4.6,-,N/A,,Overcast,130,2013-02-07 10:15:00
5:35 AM,28.0,16.9,63,30.22,10.0,Calm,Calm,-,N/A,,Scattered Clouds,0,2013-02-07 10:35:00
5:55 AM,27.3,17.4,66,30.22,10.0,Calm,Calm,-,N/A,,Clear,0,2013-02-07 10:55:00
6:15 AM,26.8,17.4,68,30.22,10.0,Calm,Calm,-,N/A,,Clear,0,2013-02-07 11:15:00
6:36 AM,26.6,17.6,69,30.23,10.0,Calm,Calm,-,N/A,,Clear,0,2013-02-07 11:36:00
6:55 AM,26.6,18.0,70,30.23,10.0,Calm,Calm,-,N/A,,Clear,0,2013-02-07 11:55:00
7:16 AM,26.6,18.3,71,30.22,10.0,ESE,3.5,-,N/A,,Clear,110,2013-02-07 12:16:00
7:35 AM,26.6,18.3,71,30.21,10.0,ESE,4.6,-,N/A,,Clear,110,2013-02-07 12:35:00
7:55 AM,26.6,18.5,71,30.20,10.0,ESE,4.6,-,N/A,,Clear,110,2013-02-07 12:55:00
8:15 AM,26.8,19.0,73,30.20,7.0,ESE,4.6,-,N/A,,Scattered Clouds,120,2013-02-07 13:15:00
8:35 AM,27.5,19.2,71,30.20,7.0,ESE,3.5,-,N/A,,Scattered Clouds,120,2013-02-07 13:35:00
8:56 AM,28.0,19.4,70,30.19,7.0,East,4.6,-,N/A,,Mostly Cloudy,100,2013-02-07 13:56:00
9:15 AM,28.8,19.8,69,30.19,7.0,ESE,3.5,-,N/A,,Overcast,120,2013-02-07 14:15:00
9:35 AM,29.8,20.3,68,30.18,7.0,ESE,5.8,-,N/A,,Mostly Cloudy,120,2013-02-07 14:35:00
9:56 AM,30.4,20.7,67,30.17,7.0,ESE,5.8,-,N/A,,Scattered Clouds,120,2013-02-07 14:56:00
10:15 AM,30.9,21.0,67,30.17,7.0,ESE,3.5,-,N/A,,Scattered Clouds,120,2013-02-07 15:15:00
10:35 AM,32.0,21.7,66,30.16,7.0,ESE,5.8,-,N/A,,Clear,110,2013-02-07 15:35:00
10:55 AM,32.7,22.1,65,30.15,7.0,ESE,4.6,-,N/A,,Clear,110,2013-02-07 15:55:00
11:15 AM,34.7,23.2,63,30.15,7.0,ESE,4.6,-,N/A,,Clear,110,2013-02-07 16:15:00
11:36 AM,36.3,23.5,60,30.15,10.0,ESE,4.6,-,N/A,,Clear,110,2013-02-07 16:36:00
11:55 AM,37.0,24.1,59,30.14,7.0,ESE,5.8,-,N/A,,Clear,120,2013-02-07 16:55:00
12:15 PM,37.6,24.4,59,30.12,10.0,East,6.9,-,N/A,,Clear,90,2013-02-07 17:15:00
12:35 PM,38.7,25.2,58,30.10,7.0,East,4.6,-,N/A,,Clear,90,2013-02-07 17:35:00
12:55 PM,39.2,25.5,58,30.09,10.0,ESE,5.8,-,N/A,,Clear,110,2013-02-07 17:55:00
1:16 PM,39.2,25.5,58,30.08,7.0,ENE,6.9,-,N/A,,Clear,60,2013-02-07 18:16:00
1:35 PM,38.8,26.1,60,30.07,7.0,ENE,8.1,-,N/A,,Clear,70,2013-02-07 18:35:00
1:55 PM,37.6,26.4,64,30.07,7.0,East,5.8,-,N/A,,Clear,80,2013-02-07 18:55:00
2:16 PM,37.4,26.2,64,30.06,10.0,East,8.1,-,N/A,,Clear,100,2013-02-07 19:16:00
2:35 PM,36.5,25.9,65,30.04,10.0,East,8.1,-,N/A,,Clear,90,2013-02-07 19:35:00
2:55 PM,36.1,25.9,66,30.04,10.0,East,9.2,-,N/A,,Clear,90,2013-02-07 19:55:00
3:15 PM,35.6,26.1,68,30.03,10.0,East,9.2,-,N/A,,Clear,80,2013-02-07 20:15:00
3:35 PM,34.9,26.1,70,30.01,10.0,East,11.5,-,N/A,,Clear,80,2013-02-07 20:35:00
3:55 PM,34.5,26.4,72,30.00,10.0,East,10.4,-,N/A,,Clear,80,2013-02-07 20:55:00
4:15 PM,34.0,26.2,73,29.99,10.0,East,11.5,18.4,N/A,,Clear,80,2013-02-07 21:15:00
4:35 PM,33.8,26.2,74,29.99,10.0,East,10.4,-,N/A,,Clear,90,2013-02-07 21:35:00
4:56 PM,32.5,25.5,75,29.98,10.0,East,11.5,19.6,N/A,,Clear,90,2013-02-07 21:56:00
5:15 PM,32.0,25.9,78,29.98,10.0,East,10.4,19.6,N/A,,Clear,90,2013-02-07 22:15:00
5:35 PM,31.8,25.5,78,29.99,10.0,East,9.2,18.4,N/A,,Clear,80,2013-02-07 22:35:00
5:56 PM,31.3,25.5,79,29.98,10.0,East,11.5,17.3,N/A,,Scattered Clouds,90,2013-02-07 22:56:00
6:15 PM,31.1,25.3,79,29.98,10.0,East,9.2,16.1,N/A,,Scattered Clouds,90,2013-02-07 23:15:00
6:36 PM,31.1,25.7,80,29.97,10.0,East,10.4,17.3,N/A,,Mostly Cloudy,90,2013-02-07 23:36:00
6:55 PM,31.1,26.1,82,29.96,10.0,East,9.2,-,N/A,,Mostly Cloudy,90,2013-02-07 23:55:00
7:15 PM,31.1,26.4,83,29.95,10.0,East,10.4,-,N/A,,Mostly Cloudy,90,2013-02-08 00:15:00
7:36 PM,31.1,26.6,83,29.94,10.0,East,10.4,17.3,N/A,,Mostly Cloudy,90,2013-02-08 00:36:00
7:55 PM,31.1,27.1,85,29.93,10.0,East,9.2,18.4,N/A,,Mostly Cloudy,90,2013-02-08 00:55:00
8:15 PM,31.1,27.3,86,29.93,10.0,East,9.2,18.4,N/A,,Overcast,80,2013-02-08 01:15:00
8:35 PM,31.5,27.5,85,29.91,10.0,East,5.8,-,N/A,,Overcast,80,2013-02-08 01:35:00
8:55 PM,31.6,27.9,86,29.90,10.0,East,10.4,-,N/A,,Overcast,90,2013-02-08 01:55:00
9:16 PM,31.8,28.0,86,29.88,10.0,East,8.1,-,N/A,,Overcast,80,2013-02-08 02:16:00
9:35 PM,32.0,28.2,86,29.87,10.0,East,8.1,16.1,N/A,,Overcast,80,2013-02-08 02:35:00
9:55 PM,32.0,28.4,87,29.87,10.0,East,8.1,-,N/A,,Overcast,90,2013-02-08 02:55:00
10:16 PM,32.0,28.6,87,29.86,10.0,ENE,6.9,-,N/A,,Overcast,70,2013-02-08 03:16:00
10:35 PM,32.2,28.8,87,29.85,10.0,ENE,5.8,-,N/A,,Overcast,60,2013-02-08 03:35:00
10:56 PM,32.4,28.8,87,29.85,10.0,East,6.9,-,N/A,,Overcast,80,2013-02-08 03:56:00
11:15 PM,32.4,28.9,87,29.82,5.0,ENE,9.2,-,N/A,,Overcast,70,2013-02-08 04:15:00
11:35 PM,32.7,29.7,88,29.83,3.0,ENE,4.6,-,N/A,Snow,Light Snow,60,2013-02-08 04:35:00
11:55 PM,32.5,29.8,90,29.83,3.0,ENE,6.9,-,N/A,Snow,Light Snow,60,2013-02-08 04:55:00